7 * 24
多渠道服务支持
STARLINK-38422(NORAD 100637)是SpaceX星链低轨互联网星座的组网卫星之一,由北美防空司令部分配唯一追踪编号100637。该卫星属于星链大规模部署批次,运行于近地轨道,轨道周期约92-94分钟,与多数星链卫星轨道特征一致。作为星链全球高速宽带网络的组成单元,它承担着为地面偏远及欠发达区域提供低延迟互联网接入服务的功能,支撑星链星座150余个国家和地区的通信覆盖,是SpaceX推进天基互联网组网、实现全球无缝网络服务目标的在轨节点之一。
美国
(US)
| 数据来源 | 国际轨道数据 |
| 星历时间: | 2026-09-12T09:42:27+0800 1天前 查看轨道信息 |
| 半长轴: | 6658.963km |
| 偏心率: | 0.0004693 |
| 轨道倾角: | 69.996° |
| 近地点辐角 | 284.425° |
| 升交点赤经 | 261.847° |
| 平近点角 | 75.644° |
| 近地点: | 277.7km |
| 远地点: | 283.952km |
| 周期: | 90.130分钟 |
| 每日圈数: | 15.976915 |